[[{"header":{"parameterUnit":"m.s-1","parameterCategory":1,"la1":30.2991,"la2":30.254,"lo1":-89.0895,"lo2":-89.0444,"dy":0.0017,"dx":0.0017,"nx":28,"ny":28,"refTime":"2024-10-16T03:00:00:Z","depth":0,"parameterNumber":2,"parameterNumberName":"U-component_of_WINDS"},"data":[0,0,0,0,0,0,0,0,0,0,0,0,0,0,0,0,0,0,0,0,0,0,0,0,0,0,0,0,0,0,0,0,0,0,0,0,0,0,0,0,0,0,0,0,0,0,0,0,0,0,0,0,0,0,0,0,0,0,-4.7807,-4.7808,0,-4.7892,-4.7893,-4.7894,-4.7815,-4.7812,-4.7809,-4.7806,-4.7892,-4.7897,-4.7902,0,0,0,0,0,0,0,0,0,0,0,0,0,-4.7573,-4.7578,-4.7807,-4.7808,-4.7809,-4.7892,-4.7893,-4.7894,-4.7816,-4.7812,-4.7808,-4.7805,-4.789,-4.7896,-4.7903,0,0,0,0,0,0,0,0,0,0,0,0,0,-4.7668,-4.7579,-4.7807,-4.778,-4.7778,-4.7892,-4.7893,-4.7895,-4.7817,-4.7812,-4.7807,-4.7803,-4.7888,-4.7896,-4.7904,-4.8047,0,0,-4.7928,-4.7931,0,0,0,0,0,0,0,0,-4.7663,-4.7677,-4.7783,-4.7782,-4.778,-4.7838,-4.7842,-4.7946,-4.7818,-4.7802,-4.7806,-4.7801,-4.7878,-4.7886,-4.7913,-4.8051,-4.8055,-4.7928,-4.7933,-4.7936,-4.7939,0,0,0,0,0,0,0,-4.7656,-4.7673,-4.784,-4.7784,-4.7783,-4.7763,-4.7771,-4.7862,-4.7866,-4.7803,-4.7798,-4.7809,-4.7876,-4.7905,-4.7914,-4.8056,-4.7928,-4.7935,-4.794,-4.7943,-4.8316,-4.8321,0,0,0,0,0,0,-4.7653,-4.7668,-4.7838,-4.7843,-4.7709,-4.7771,-4.778,-4.7825,-4.7864,-4.7866,-4.7813,-4.7805,-4.7894,-4.7905,-4.7917,-4.8088,-4.7936,-4.7944,-4.7948,-4.8311,-4.8317,-4.8323,0,0,0,0,0,0,-4.7648,-4.7669,-4.7834,-4.7754,-4.7774,-4.778,-4.7831,-4.7829,-4.7858,-4.7872,-4.7872,-4.7842,-4.7891,-4.7906,-4.8015,-4.8089,-4.7947,-4.7954,-4.8305,-4.8313,-4.832,-4.8431,0,0,0,0,0,0,-4.7642,-4.7668,-4.7723,-4.7756,-4.7778,-4.7933,-4.7835,-4.7834,-4.7872,-4.7862,-4.7899,-4.7901,-4.7888,-4.8004,-4.8023,-4.8098,-4.7961,-4.8298,-4.8308,-4.8317,-4.842,-4.8441,-4.8459,0,0,0,0,0,-4.7634,-4.7751,-4.7726,-4.7747,-4.7848,-4.7937,-4.795,-4.7934,-4.7878,-4.7933,-4.7942,-4.79,-4.8078,-4.8016,-4.8037,-4.8115,-4.8293,-4.8305,-4.8317,-4.8412,-4.8437,-4.8458,0,0,0,0,0,0,-4.7726,-4.7755,-4.7728,-4.7859,-4.7896,-4.7924,-4.7993,-4.7961,-4.8015,-4.8003,-4.798,-4.7989,-4.8105,-4.812,-4.8051,-4.8255,-4.8177,-4.8193,-4.8242,-4.8266,-4.8285,-4.8279,-4.7967,0,0,0,0,0,-4.7762,-4.7833,-4.7853,-4.7967,-4.7987,-4.7987,-4.8026,-4.801,-4.8047,-4.8063,-4.8079,-4.8117,-4.8181,-4.8224,-4.8284,-4.8422,-4.8428,-4.8485,-4.8505,-4.852,-4.8535,-4.8608,-4.8634,-4.8361,-4.8361,-4.8361,0,0,-4.7836,-4.786,-4.7907,-4.7986,-4.8013,-4.8087,-4.8001,-4.8082,-4.8136,-4.8075,-4.8179,-4.8193,-4.8233,-4.8357,-4.8413,-4.8374,-4.8612,-4.8535,-4.8548,-4.8554,-4.8623,-4.8649,-4.8672,-4.8369,-4.8368,-4.8366,0,0,-4.801,-4.8035,-4.8133,-4.8161,-4.8203,-4.8202,-4.8226,-4.8258,-4.8265,-4.837,-4.8325,-4.8388,-4.8499,-4.853,-4.856,-4.8743,-4.8706,-4.8763,-4.8864,-4.8936,-4.8958,-4.8976,-4.9042,-4.9066,-4.8777,-4.8778,-4.8778,0,-4.8097,-4.8206,-4.8187,-4.8271,-4.8307,-4.8255,-4.8353,-4.8381,-4.8441,-4.8466,-4.8422,-4.856,-4.8583,-4.8713,-4.8758,-4.8784,-4.881,-4.8759,-4.8956,-4.8975,-4.8992,-4.9054,-4.9079,-4.8784,-4.8784,-4.8783,-4.8782,0,-4.8311,-4.8388,-4.8461,-4.8521,-4.8564,-4.8656,-4.8649,-4.8695,-4.8675,-4.8679,-4.8785,-4.8811,-4.8875,-4.8904,-4.8886,-4.9032,-4.9007,-4.896,-4.888,-4.9025,-4.9083,-4.9107,-4.8794,-4.8792,-4.879,-4.8788,0,0,-4.8547,-4.8593,-4.8621,-4.8647,-4.8689,-4.8747,-4.8835,-4.8898,-4.8938,-4.898,-4.9053,-4.9148,-4.9104,-4.9138,-4.9122,-4.9185,-4.9328,-4.913,-4.913,-4.9166,-4.9491,-4.9527,-4.9555,-4.9303,-4.9308,-4.9311,-4.9488,0,-4.8722,-4.8876,-4.886,-4.9006,-4.9076,-4.9026,-4.9102,-4.9136,-4.9141,-4.92,-4.9205,-4.9273,-4.921,-4.9231,-4.9291,-4.9298,-4.9393,-4.9285,-4.937,-4.9374,-4.9363,-4.9585,-4.9623,-4.9788,-4.951,-4.9514,-4.9517,0,-4.8947,-4.8998,-4.9152,-4.9182,-4.9211,-4.928,-4.9336,-4.9393,-4.943,-4.9429,-4.9467,-4.9439,-4.9526,-4.9444,-4.9563,-4.949,-4.9523,-4.9532,-4.9538,-4.9546,-4.9455,-4.9599,-4.9841,-4.9866,-4.9552,-4.9549,-4.9547,0,-4.9104,-4.9211,-4.9316,-4.934,-4.9378,-4.9427,-4.9445,-4.9477,-4.9516,-4.9564,-4.9589,-4.9646,-4.9678,-4.9723,-4.9711,-4.9653,-4.9833,-4.975,-4.9834,-4.9835,-4.9876,-4.9874,-5.0127,-4.9897,-4.9896,-4.9896,-4.9895,0,-4.9302,-4.9398,-4.9387,-4.9452,-4.9557,-4.9537,-4.9642,-4.9653,-4.9681,-4.9747,-4.9707,-4.9769,-4.9749,-4.981,-4.9801,-4.9901,-4.9915,-4.9916,-4.9913,-4.9921,-4.9921,-4.9943,-4.9931,-4.9902,-4.9901,-4.9899,-4.9898,0,-4.9496,-4.9493,-4.9604,-4.9631,-4.964,-4.9716,-4.9738,-4.9799,-4.98,-4.9883,-4.9902,-4.9904,-4.9973,-4.9965,-5.0043,-5.0036,-5.016,-5.0143,-5.0149,-5.0145,-5.023,-5.0222,-5.0507,-5.0543,-5.0289,-5.0292,-5.0294,0,-4.9623,-4.9696,-4.973,-4.9771,-4.9793,-4.986,-4.9899,-4.9881,-4.9923,-4.9969,-5.0024,-5.009,-5.0142,-5.0254,-5.0262,-5.0321,-5.0305,-5.04,-5.0313,-5.0318,-5.0306,-5.0302,-5.0309,-5.0418,-5.0421,-5.0423,-5.0425,0,-4.9849,-4.9843,-4.9902,-4.996,-5.0008,-5.0052,-5.0092,-5.0128,-5.0114,-5.0163,-5.0234,-5.0274,-5.0353,-5.0418,-5.0473,-5.049,-5.0456,-5.0452,-5.0474,-5.0483,-5.0484,-5.0485,-5.0196,-5.0446,-5.0444,-5.0442,-5.0441,-5.044,-5.0013,-5.0075,-5.0109,-5.0175,-5.0204,-5.0242,-5.03,-5.0308,-5.0367,-5.0431,-5.0416,-5.0495,-5.0528,-5.0599,-5.0621,-5.0682,-5.0647,-5.068,-5.0689,-5.0697,-5.0707,-5.0474,-5.0692,-5.0692,-5.0691,-5.0691,-5.069,0,-5.0237,-5.0257,-5.0318,-5.0375,-5.0427,-5.0389,-5.0432,-5.0477,-5.0548,-5.0582,-5.0633,-5.0714,-5.0777,-5.0789,-5.0848,-5.0895,-5.088,-5.0911,-5.0908,-5.0912,-5.0735,-5.071,-5.0922,-5.0922,-5.0922,-5.0922,-5.0922,-5.0922,-5.036,-5.0463,-5.0461,-5.0577,-5.0595,-5.0673,-5.0701,-5.0735,-5.0762,-5.0854,-5.0906,-5.0914,-5.0938,-5.0999,-5.1055,-5.1057,-5.108,-5.1118,-5.1114,-5.0948,-5.0925,-5.0903,-5.0879,-5.1123,-5.1124,-5.1286,-5.1287,-5.1288]},{"header":{"parameterUnit":"m.s-1","parameterCategory":1,"la1":30.2991,"la2":30.254,"lo1":-89.0895,"lo2":-89.0444,"dy":0.0017,"dx":0.0017,"nx":28,"ny":28,"refTime":"2024-10-16T03:00:00:Z","depth":0,"parameterNumber":3,"parameterNumberName":"V-component_of_WINDS"},"data":[0,0,0,0,0,0,0,0,0,0,0,0,0,0,0,0,0,0,0,0,0,0,0,0,0,0,0,0,0,0,0,0,0,0,0,0,0,0,0,0,0,0,0,0,0,0,0,0,0,0,0,0,0,0,0,0,0,0,-8.3104,-8.3104,0,-8.3183,-8.3184,-8.3185,-8.308,-8.3076,-8.3072,-8.3068,-8.3144,-8.3149,-8.3155,0,0,0,0,0,0,0,0,0,0,0,0,0,-8.2853,-8.2858,-8.3103,-8.3105,-8.3106,-8.3183,-8.3184,-8.3185,-8.308,-8.3076,-8.3071,-8.3067,-8.3142,-8.3148,-8.3155,0,0,0,0,0,0,0,0,0,0,0,0,0,-8.295,-8.286,-8.3103,-8.3063,-8.306,-8.3183,-8.3184,-8.3186,-8.3081,-8.3076,-8.307,-8.3065,-8.314,-8.3148,-8.3156,-8.3321,0,0,-8.3181,-8.3185,0,0,0,0,0,0,0,0,-8.2945,-8.2959,-8.3068,-8.3066,-8.3063,-8.3116,-8.3123,-8.3231,-8.3083,-8.3073,-8.3068,-8.3062,-8.3139,-8.3147,-8.3174,-8.3324,-8.3328,-8.3182,-8.3187,-8.3191,-8.3193,0,0,0,0,0,0,0,-8.2938,-8.2955,-8.3135,-8.3069,-8.3066,-8.3038,-8.3046,-8.3143,-8.3136,-8.3073,-8.3066,-8.3077,-8.3136,-8.3166,-8.3175,-8.3329,-8.3182,-8.3189,-8.3194,-8.3198,-8.3617,-8.3623,0,0,0,0,0,0,-8.2937,-8.2951,-8.3132,-8.3137,-8.2989,-8.3047,-8.3056,-8.3104,-8.3135,-8.3134,-8.3082,-8.3072,-8.3155,-8.3165,-8.3177,-8.3372,-8.3191,-8.3198,-8.3203,-8.3611,-8.3619,-8.3625,0,0,0,0,0,0,-8.2932,-8.2955,-8.3129,-8.3042,-8.3062,-8.3058,-8.3113,-8.3109,-8.3139,-8.3142,-8.3139,-8.3114,-8.3151,-8.3165,-8.3286,-8.3373,-8.3202,-8.321,-8.3604,-8.3613,-8.3622,-8.3763,0,0,0,0,0,0,-8.2926,-8.2953,-8.3018,-8.3044,-8.3067,-8.3239,-8.3119,-8.3115,-8.3154,-8.3142,-8.3172,-8.3171,-8.3147,-8.3274,-8.3294,-8.3381,-8.3216,-8.3596,-8.3608,-8.3619,-8.375,-8.3776,-8.3797,0,0,0,0,0,-8.2917,-8.3053,-8.3022,-8.3044,-8.3148,-8.3245,-8.3257,-8.323,-8.3162,-8.3225,-8.3227,-8.317,-8.336,-8.3288,-8.3309,-8.34,-8.359,-8.3605,-8.3618,-8.374,-8.3771,-8.3797,0,0,0,0,0,0,-8.3034,-8.3056,-8.3021,-8.317,-8.3207,-8.3227,-8.3306,-8.3263,-8.3318,-8.3304,-8.3265,-8.3272,-8.3401,-8.3412,-8.3331,-8.356,-8.3464,-8.3483,-8.3549,-8.3578,-8.3601,-8.3596,-8.3223,0,0,0,0,0,-8.3078,-8.3157,-8.317,-8.33,-8.3321,-8.3311,-8.3351,-8.3327,-8.3362,-8.3377,-8.3387,-8.3422,-8.3489,-8.3534,-8.3596,-8.3751,-8.3755,-8.3824,-8.3848,-8.3867,-8.3883,-8.3965,-8.3996,-8.3671,-8.3671,-8.367,0,0,-8.3167,-8.3189,-8.3241,-8.3324,-8.335,-8.343,-8.3324,-8.3414,-8.3472,-8.3389,-8.3505,-8.3514,-8.3549,-8.3688,-8.375,-8.3701,-8.3974,-8.3885,-8.39,-8.3906,-8.3983,-8.4014,-8.4041,-8.368,-8.3679,-8.3677,0,0,-8.3373,-8.3398,-8.3509,-8.3537,-8.3578,-8.357,-8.3597,-8.3624,-8.3627,-8.3743,-8.3682,-8.375,-8.3867,-8.3895,-8.3925,-8.4141,-8.409,-8.4162,-8.4285,-8.4365,-8.439,-8.4413,-8.4489,-8.4517,-8.4179,-8.4179,-8.4179,0,-8.3478,-8.36,-8.357,-8.3665,-8.3703,-8.3634,-8.3744,-8.3772,-8.383,-8.3857,-8.3802,-8.3948,-8.3967,-8.4111,-8.4164,-8.4191,-8.4219,-8.4158,-8.439,-8.4412,-8.4432,-8.4505,-8.4534,-8.4187,-8.4186,-8.4186,-8.4185,0,-8.3728,-8.3813,-8.3897,-8.3958,-8.4005,-8.4107,-8.4091,-8.4142,-8.4113,-8.4111,-8.4228,-8.4249,-8.4314,-8.4347,-8.4319,-8.4487,-8.4455,-8.4396,-8.4298,-8.4472,-8.454,-8.4567,-8.4199,-8.4196,-8.4194,-8.4192,0,0,-8.4008,-8.4052,-8.4084,-8.411,-8.415,-8.4214,-8.4312,-8.4378,-8.4422,-8.4464,-8.4545,-8.4646,-8.4591,-8.4625,-8.4599,-8.467,-8.4839,-8.4602,-8.4602,-8.4645,-8.5024,-8.5068,-8.5101,-8.4806,-8.4811,-8.4815,-8.5021,0,-8.4213,-8.4386,-8.4362,-8.4528,-8.4605,-8.454,-8.4626,-8.4658,-8.4659,-8.4722,-8.4721,-8.4794,-8.4717,-8.4736,-8.4804,-8.4805,-8.4915,-8.4789,-8.4878,-8.4882,-8.4871,-8.5136,-8.5183,-8.5376,-8.5047,-8.5052,-8.5055,0,-8.4475,-8.453,-8.4704,-8.4732,-8.4763,-8.4841,-8.4899,-8.4962,-8.4997,-8.4991,-8.503,-8.4992,-8.5087,-8.4989,-8.5119,-8.5035,-8.5069,-8.5075,-8.5082,-8.5089,-8.4979,-8.5149,-8.5437,-8.5466,-8.5096,-8.5093,-8.509,0,-8.4662,-8.4779,-8.4898,-8.4922,-8.4958,-8.5014,-8.5031,-8.5061,-8.5102,-8.5152,-8.5178,-8.5237,-8.527,-8.5316,-8.5294,-8.5225,-8.5429,-8.5328,-8.5426,-8.5427,-8.5471,-8.5469,-8.5768,-8.5495,-8.5495,-8.5494,-8.5494,0,-8.4893,-8.5002,-8.4982,-8.5056,-8.5175,-8.5145,-8.5263,-8.5272,-8.5299,-8.5371,-8.5317,-8.5385,-8.5353,-8.5418,-8.5401,-8.5511,-8.5526,-8.5524,-8.5518,-8.5528,-8.5529,-8.555,-8.5536,-8.5502,-8.55,-8.5499,-8.5497,0,-8.5122,-8.5113,-8.5239,-8.5263,-8.5272,-8.5358,-8.5378,-8.5445,-8.5441,-8.5533,-8.5553,-8.5547,-8.5621,-8.5604,-8.5684,-8.5672,-8.5811,-8.5788,-8.58,-8.5795,-8.5893,-8.5884,-8.6216,-8.6258,-8.5959,-8.5962,-8.5964,0,-8.527,-8.5352,-8.5386,-8.5432,-8.5454,-8.5528,-8.557,-8.5543,-8.5589,-8.5635,-8.5697,-8.5766,-8.5821,-8.5942,-8.5943,-8.6004,-8.5982,-8.6094,-8.599,-8.5998,-8.5982,-8.5978,-8.5985,-8.6114,-8.6118,-8.6121,-8.6123,0,-8.5533,-8.5525,-8.5589,-8.5653,-8.5705,-8.5753,-8.5795,-8.5835,-8.5811,-8.5865,-8.5942,-8.5984,-8.6067,-8.6136,-8.6193,-8.6207,-8.6161,-8.6156,-8.6181,-8.6193,-8.6196,-8.6195,-8.5856,-8.6148,-8.6146,-8.6144,-8.6142,-8.6141,-8.5725,-8.5795,-8.583,-8.5904,-8.5933,-8.5974,-8.6039,-8.6044,-8.6108,-8.6176,-8.6155,-8.6242,-8.6273,-8.6344,-8.6366,-8.6432,-8.6389,-8.6426,-8.6436,-8.6445,-8.6457,-8.6187,-8.6442,-8.6441,-8.644,-8.644,-8.6439,0,-8.5985,-8.6004,-8.6072,-8.6135,-8.6192,-8.6146,-8.6191,-8.6241,-8.6319,-8.6353,-8.6408,-8.6496,-8.6563,-8.657,-8.6632,-8.6683,-8.6664,-8.6701,-8.6696,-8.67,-8.6492,-8.6464,-8.6715,-8.6715,-8.6715,-8.6715,-8.6715,-8.6715,-8.6127,-8.6243,-8.6239,-8.6369,-8.6387,-8.6474,-8.6503,-8.654,-8.6567,-8.6668,-8.6724,-8.6729,-8.6752,-8.6816,-8.6874,-8.6874,-8.6899,-8.6945,-8.6937,-8.6742,-8.6715,-8.6688,-8.6661,-8.695,-8.6951,-8.7138,-8.714,-8.7142]}]]